Weather History for Glenwood, MN

Change the Weather History Date:

Sunday, November 27, 2011

  Actual Average Record
Temperature  
Mean Temperature 26 °F -  
Max Temperature 30 °F 30 °F 57 °F (1998)
Min Temperature 21 °F 13 °F -16 °F (1985)
Degree Days  
Heating Degree Days 40    
Moisture  
Dew Point 21 °F    
Average Humidity 72    
Maximum Humidity 93    
Minimum Humidity 64    
Precipitation  
Precipitation 0.00 in - - ()
Sea Level Pressure  
Sea Level Pressure 30.19 in    
Wind  
Wind Speed 16 mph (NNW)    
Max Wind Speed 25 mph    
Max Gust Speed 33 mph    
Visibility 10 miles    
Events      
Averages and records for this station are not official NWS values.
T = Trace of Precipitation, MM = Missing Value Source: NWS Daily Summary

Daily Weather History Graph

Daily Weather History Graph

Search for Another Location

Airport:

Trip Planner

Search our weather history database for the weather conditions in past years. The results will help you decide how hot, cold, wet, or windy it might be!

Date:

Astronomy

Nov. 27, 2011 Rise Set
Actual Time 7:36 AM CST 4:41 PM CST
Civil Twilight 7:03 AM CST 5:14 PM CST
Nautical Twilight 6:26 AM CST 5:51 PM CST
Astronomical Twilight 5:50 AM CST 6:26 PM CST
Moon 10:03 AM CST (11/27) 7:20 PM CST (11/27)
Length of Visible Light 10h 11m
Length of Day
9h 04m
Waxing Crescent, 8% of the Moon is Illuminated
Nov 27
Waxing Crescent
Dec 2
First Quarter
Dec 10
Full
Dec 17
Last Quarter
Dec 24
New

Hourly Weather History & Observations

Time (CST) Temp. Windchill Dew Point Humidity Pressure Visibility Wind Dir Wind Speed Gust Speed Precip Events Conditions
12:13 AM 30.2 °F 16.5 °F 21.2 °F 69% 30.16 in 10.0 mi NW 24.2 mph 33.4 mph N/A   Overcast
12:33 AM 30.2 °F 16.5 °F 21.2 °F 69% 30.16 in 10.0 mi NNW 24.2 mph 31.1 mph N/A   Overcast
12:53 AM 30.2 °F 17.1 °F 21.2 °F 69% 30.16 in 10.0 mi NW 21.9 mph 27.6 mph N/A   Overcast
1:14 AM 30.2 °F 18.5 °F 21.2 °F 69% 30.16 in 10.0 mi NW 17.3 mph 26.5 mph N/A   Overcast
1:33 AM 30.2 °F 16.8 °F 21.2 °F 69% 30.16 in 10.0 mi NNW 23.0 mph 27.6 mph N/A   Overcast
1:53 AM 30.2 °F 16.5 °F 21.2 °F 69% 30.16 in 10.0 mi NNW 24.2 mph 29.9 mph N/A   Overcast
2:13 AM 30.2 °F 17.4 °F 21.2 °F 69% 30.17 in 10.0 mi NNW 20.7 mph 28.8 mph N/A   Overcast
2:34 AM 30.2 °F 16.2 °F 21.2 °F 69% 30.17 in 10.0 mi NNW 25.3 mph 33.4 mph N/A   Overcast
2:54 AM 30.2 °F 17.8 °F 21.2 °F 69% 30.18 in 10.0 mi NNW 19.6 mph 26.5 mph N/A   Overcast
3:14 AM 30.2 °F 18.1 °F 21.2 °F 69% 30.17 in 10.0 mi NNW 18.4 mph 25.3 mph N/A   Overcast
3:34 AM 30.2 °F 17.8 °F 21.2 °F 69% 30.17 in 10.0 mi NNW 19.6 mph 25.3 mph N/A   Overcast
3:54 AM 30.2 °F 18.5 °F 21.2 °F 69% 30.18 in 10.0 mi NNW 17.3 mph - N/A   Overcast
4:14 AM 30.2 °F 18.5 °F 21.2 °F 69% 30.18 in 10.0 mi NNW 17.3 mph 25.3 mph N/A   Overcast
4:34 AM 30.2 °F 18.1 °F 21.2 °F 69% 30.18 in 10.0 mi NNW 18.4 mph 25.3 mph N/A   Overcast
4:54 AM 30.2 °F 19.3 °F 21.2 °F 69% 30.19 in 10.0 mi NNW 15.0 mph 24.2 mph N/A   Overcast
5:14 AM 30.2 °F 18.9 °F 21.2 °F 69% 30.19 in 10.0 mi NNW 16.1 mph 23.0 mph N/A   Overcast
5:34 AM 28.4 °F 16.6 °F 21.2 °F 74% 30.19 in 10.0 mi NNW 16.1 mph 21.9 mph N/A   Overcast
5:53 AM 28.4 °F 17.5 °F 21.2 °F 74% 30.19 in 10.0 mi NNW 13.8 mph 19.6 mph N/A   Overcast
6:13 AM 28.4 °F 15.4 °F 21.2 °F 74% 30.20 in 10.0 mi NNW 19.6 mph 26.5 mph N/A   Overcast
6:34 AM 28.4 °F 17.5 °F 21.2 °F 74% 30.21 in 10.0 mi NNW 13.8 mph 20.7 mph N/A   Overcast
6:54 AM 28.4 °F 17.0 °F 21.2 °F 74% 30.22 in 10.0 mi NNW 15.0 mph 20.7 mph N/A   Overcast
7:14 AM 28.4 °F 16.6 °F 21.2 °F 74% 30.22 in 10.0 mi NNW 16.1 mph 21.9 mph N/A   Overcast
7:33 AM 28.4 °F 15.8 °F 21.2 °F 74% 30.22 in 10.0 mi North 18.4 mph 25.3 mph N/A   Overcast
7:53 AM 28.4 °F 17.5 °F 21.2 °F 74% 30.21 in 10.0 mi NNW 13.8 mph - N/A   Overcast
8:13 AM 28.4 °F 18.0 °F 21.2 °F 74% 30.21 in 10.0 mi NNW 12.7 mph 19.6 mph N/A   Overcast
8:33 AM 28.4 °F 16.6 °F 21.2 °F 74% 30.21 in 10.0 mi NNW 16.1 mph - N/A   Overcast
9:13 AM 28.4 °F 17.5 °F 21.2 °F 74% 30.22 in 10.0 mi NNW 13.8 mph - N/A   Overcast
9:34 AM 28.4 °F 18.0 °F 21.2 °F 74% 30.23 in 10.0 mi NNW 12.7 mph - N/A   Overcast
9:53 AM 28.4 °F 18.5 °F 21.2 °F 74% 30.24 in 10.0 mi NNW 11.5 mph 18.4 mph N/A   Overcast
10:13 AM 28.4 °F 19.1 °F 21.2 °F 74% 30.24 in 10.0 mi North 10.4 mph - N/A   Overcast
10:34 AM 28.4 °F 18.5 °F 21.2 °F 74% 30.23 in 10.0 mi North 11.5 mph 17.3 mph N/A   Overcast
10:54 AM 30.2 °F 20.8 °F 21.2 °F 69% 30.23 in 10.0 mi NNW 11.5 mph - N/A   Overcast
11:14 AM 30.2 °F 21.9 °F 21.2 °F 69% 30.22 in 10.0 mi NNW 9.2 mph - N/A   Overcast
11:33 AM 30.2 °F 21.9 °F 21.2 °F 69% 30.22 in 10.0 mi North 9.2 mph - N/A   Overcast
11:54 AM 30.2 °F 22.6 °F 21.2 °F 69% 30.21 in 10.0 mi NNW 8.1 mph - N/A   Overcast
12:13 PM 30.2 °F 21.9 °F 21.2 °F 69% 30.20 in 10.0 mi North 9.2 mph - N/A   Overcast
12:33 PM 30.2 °F 21.9 °F 21.2 °F 69% 30.20 in 10.0 mi NW 9.2 mph - N/A   Overcast
12:54 PM 30.2 °F 21.9 °F 21.2 °F 69% 30.20 in 10.0 mi NNW 9.2 mph - N/A   Overcast
1:13 PM 30.2 °F 22.6 °F 21.2 °F 69% 30.20 in 10.0 mi NW 8.1 mph - N/A   Overcast
1:33 PM 30.2 °F 22.6 °F 21.2 °F 69% 30.20 in 10.0 mi NW 8.1 mph - N/A   Overcast
1:54 PM 30.2 °F 22.6 °F 21.2 °F 69% 30.19 in 10.0 mi NW 8.1 mph - N/A   Overcast
2:14 PM 30.2 °F 22.6 °F 21.2 °F 69% 30.18 in 10.0 mi NW 8.1 mph - N/A   Overcast
2:33 PM 30.2 °F 25.4 °F 19.4 °F 64% 30.17 in 10.0 mi North 4.6 mph - N/A   Mostly Cloudy
2:54 PM 30.2 °F 26.7 °F 21.2 °F 69% 30.17 in 10.0 mi NE 3.5 mph - N/A   Scattered Clouds
3:14 PM 30.2 °F 26.7 °F 19.4 °F 64% 30.18 in 10.0 mi North 3.5 mph - N/A   Mostly Cloudy
3:54 PM 30.2 °F - 21.2 °F 69% 30.18 in 10.0 mi Calm Calm - N/A   Mostly Cloudy
4:13 PM 28.4 °F - 19.4 °F 69% 30.18 in 10.0 mi Calm Calm - N/A   Overcast
4:34 PM 28.4 °F 24.6 °F 19.4 °F 69% 30.18 in 10.0 mi WNW 3.5 mph - N/A   Overcast
4:54 PM 28.4 °F 23.3 °F 19.4 °F 69% 30.18 in 10.0 mi NW 4.6 mph - N/A   Mostly Cloudy
5:33 PM 28.4 °F 22.2 °F 21.2 °F 74% 30.18 in 10.0 mi WSW 5.8 mph - N/A   Overcast
5:53 PM 28.4 °F - 21.2 °F 74% 30.18 in 10.0 mi Calm Calm - N/A   Overcast
6:14 PM 28.4 °F - 21.2 °F 74% 30.17 in 10.0 mi Calm Calm - N/A   Overcast
6:54 PM 26.6 °F - 21.2 °F 80% 30.18 in 10.0 mi Calm Calm - N/A   Clear
7:14 PM 26.6 °F 22.6 °F 21.2 °F 80% 30.16 in 10.0 mi SSE 3.5 mph - N/A   Clear
7:34 PM 24.8 °F 20.5 °F 19.4 °F 80% 30.16 in 10.0 mi South 3.5 mph - N/A   Clear
7:53 PM 24.8 °F 19.1 °F 19.4 °F 80% 30.15 in 10.0 mi South 4.6 mph - N/A   Clear
8:13 PM 21.2 °F 14.9 °F 19.4 °F 93% 30.14 in 10.0 mi SSE 4.6 mph - N/A   Clear
8:34 PM 23.0 °F 17.0 °F 19.4 °F 86% 30.14 in 10.0 mi SSE 4.6 mph - N/A   Clear
8:54 PM 21.2 °F 13.6 °F 19.4 °F 93% 30.13 in 10.0 mi SSE 5.8 mph - N/A   Clear
9:34 PM 21.2 °F 13.6 °F 17.6 °F 86% 30.13 in 10.0 mi SSE 5.8 mph - N/A   Clear
9:53 PM 21.2 °F 13.6 °F 17.6 °F 86% 30.12 in 10.0 mi SSE 5.8 mph - N/A   Clear
10:14 PM 21.2 °F 16.4 °F 17.6 °F 86% 30.12 in 10.0 mi SE 3.5 mph - N/A   Clear
10:33 PM 21.2 °F 14.9 °F 17.6 °F 86% 30.12 in 10.0 mi SSE 4.6 mph - N/A   Clear
10:54 PM 19.4 °F 12.8 °F 17.6 °F 93% 30.11 in 10.0 mi South 4.6 mph - N/A   Clear
11:13 PM 21.2 °F 11.7 °F 17.6 °F 86% 30.10 in 10.0 mi South 8.1 mph - N/A   Clear
11:34 PM 21.2 °F 13.6 °F 17.6 °F 86% 30.09 in 10.0 mi South 5.8 mph - N/A   Clear
11:53 PM 21.2 °F 11.7 °F 17.6 °F 86% 30.09 in 10.0 mi South 8.1 mph - N/A   Clear